Date String (YYYY-MM-DD hh:mm:ss) UTC,Instrument flags,Ambient pressure (hPa),Sample flow (lpm),Bypass flow (lpm),Sample temperature (°C),Ambient temperature (°C),ASC tube jacket temperature (°C),LED temperature (°C),Box temperature (°C),Sample RH (%),Span deviation,Mass concentration (μg/m³),Mass concentration (μg/m³),Mass concentration (μg/m³)
DateTimeUTC,F1_M11,P_M11,Q1_M11,Q2_M11,T1_M11,T2_M11,T3_M11,T4_M11,T5_M11,U1_M11,ZSPAN_M11,X0_M11,X2_M11,X1_M11
2022-05-12 20:00:00,,0822.4,5.00,0.00,28.9,28.0,00.0,37.9,30.6,05.9,0000.0,0011.50,0003.61,0001.51
2022-05-12 20:01:00,,0822.5,4.99,0.00,28.9,28.0,00.0,37.9,30.6,05.5,0000.0,0012.71,0003.60,0001.50
2022-05-12 20:02:00,,0822.5,4.99,0.00,28.9,28.0,00.0,37.9,30.7,05.7,0000.0,0012.34,0003.55,0001.48
2022-05-12 20:03:00,,0822.5,5.00,0.00,28.9,28.0,00.0,37.9,30.7,05.4,0000.0,0012.09,0003.52,0001.47
2022-05-12 20:04:00,,0822.6,5.00,0.00,28.9,28.0,00.0,37.9,30.7,05.4,0000.0,0011.55,0003.51,0001.46
2022-05-12 20:05:00,,0822.6,5.00,0.00,28.9,28.0,00.0,37.9,30.7,05.2,0000.0,0010.87,0003.47,0001.46
2022-05-12 20:06:00,,0822.5,5.01,0.00,28.9,28.0,00.0,37.9,30.7,05.2,0000.0,0011.33,0003.46,0001.47
2022-05-12 20:07:00,,0822.5,5.01,0.00,28.9,28.0,00.0,37.9,30.7,06.0,0000.0,0011.88,0003.44,0001.47
2022-05-12 20:08:00,,0822.5,4.99,0.00,28.9,28.0,00.0,37.9,30.7,06.0,0000.0,0011.29,0003.42,0001.49
2022-05-12 20:09:00,,0822.6,5.00,0.00,28.9,28.0,00.0,37.9,30.7,05.9,0000.0,0011.51,0003.39,0001.49
2022-05-12 20:10:00,,0822.7,5.01,0.00,28.9,28.0,00.0,37.9,30.7,05.4,0000.0,0011.41,0003.36,0001.46
2022-05-12 20:11:00,,0822.6,4.99,0.00,28.9,28.0,00.0,37.9,30.7,05.6,0000.0,0011.24,0003.33,0001.45
2022-05-12 20:12:00,,0822.5,5.01,0.00,28.9,28.0,00.0,37.9,30.7,05.3,0000.0,0010.19,0003.30,0001.46
2022-05-12 20:13:00,,0822.4,5.00,0.00,28.9,28.0,00.0,37.9,30.7,05.5,0000.0,0010.18,0003.32,0001.46
2022-05-12 20:14:00,,0822.4,5.00,0.00,28.9,28.0,00.0,37.9,30.7,05.4,0000.0,0010.22,0003.34,0001.47
2022-05-12 20:15:00,,0822.4,5.00,0.00,28.9,27.9,00.0,37.9,30.7,04.9,0000.0,0010.31,0003.36,0001.46
2022-05-12 20:16:00,,0822.6,5.00,0.00,28.9,27.9,00.0,37.9,30.7,05.1,0000.0,0010.34,0003.34,0001.44
2022-05-12 20:17:00,,0822.5,5.00,0.00,28.9,27.9,00.0,37.9,30.7,05.1,0000.0,0009.65,0003.28,0001.42
2022-05-12 20:18:00,,0822.5,4.98,0.00,28.9,27.9,00.0,37.9,30.7,05.1,0000.0,0008.77,0003.23,0001.38
2022-05-12 20:19:00,,0822.5,5.01,0.00,28.9,27.9,00.0,37.9,30.7,05.0,0000.0,0008.72,0003.21,0001.35
2022-05-12 20:20:00,,0822.5,5.00,0.00,28.9,27.9,00.0,37.9,30.7,05.4,0000.0,0008.42,0003.20,0001.34
2022-05-12 20:21:00,,0822.6,5.00,0.00,28.9,27.9,00.0,37.9,30.7,05.3,0000.0,0008.95,0003.28,0001.36
2022-05-12 20:22:00,,0822.7,5.01,0.00,28.9,27.9,00.0,37.9,30.7,05.3,0000.0,0008.89,0003.27,0001.38
2022-05-12 20:23:00,,0822.7,5.00,0.00,28.9,27.9,00.0,37.9,30.6,05.3,0000.0,0008.85,0003.29,0001.37
2022-05-12 20:24:00,,0822.7,5.00,0.00,28.9,27.9,00.0,37.9,30.6,05.5,0000.0,0008.78,0003.29,0001.37
2022-05-12 20:25:00,,0822.7,5.00,0.00,28.9,27.9,00.0,37.9,30.6,05.4,0000.0,0009.16,0003.29,0001.35
2022-05-12 20:26:00,,0822.6,5.00,0.00,28.9,27.9,00.0,37.9,30.6,05.5,0000.0,0009.16,0003.28,0001.35
2022-05-12 20:27:00,,0822.6,4.99,0.00,28.9,27.9,00.0,37.9,30.6,05.6,0000.0,0009.53,0003.32,0001.35
2022-05-12 20:28:00,,0822.7,5.00,0.00,28.9,27.9,00.0,37.9,30.7,05.5,0000.0,0010.40,0003.32,0001.35
2022-05-12 20:29:00,,0822.7,5.00,0.00,28.9,27.9,00.0,37.9,30.7,05.5,0000.0,0010.72,0003.37,0001.37
2022-05-12 20:30:00,,0822.5,4.99,0.00,28.9,28.0,00.0,37.9,30.7,05.7,0000.0,0010.65,0003.38,0001.40
2022-05-12 20:31:00,,0822.5,5.02,0.00,28.9,27.9,00.0,37.9,30.7,05.4,0000.0,0010.73,0003.39,0001.40
2022-05-12 20:32:00,,0822.6,4.99,0.00,28.9,28.0,00.0,37.9,30.7,05.4,0000.0,0010.01,0003.30,0001.39
2022-05-12 20:33:00,,0822.6,4.99,0.00,28.9,28.0,00.0,37.9,30.7,05.8,0000.0,0010.56,0003.28,0001.36
2022-05-12 20:34:00,,0822.6,5.02,0.00,28.9,28.0,00.0,37.9,30.7,05.8,0000.0,0010.41,0003.30,0001.36
2022-05-12 20:35:00,,0822.6,5.00,0.00,28.9,28.0,00.0,37.9,30.7,06.0,0000.0,0010.21,0003.32,0001.36
2022-05-12 20:36:00,,0822.5,5.01,0.00,28.9,28.0,00.0,37.9,30.7,05.9,0000.0,0009.68,0003.32,0001.35
2022-05-12 20:37:00,,0822.4,5.00,0.00,28.9,28.1,00.0,37.9,30.7,05.7,0000.0,0009.81,0003.33,0001.35
2022-05-12 20:38:00,,0822.4,4.99,0.00,28.9,28.0,00.0,37.9,30.7,05.5,0000.0,0010.20,0003.35,0001.35
2022-05-12 20:39:00,,0822.4,5.01,0.00,28.9,28.0,00.0,37.9,30.7,05.6,0000.0,0009.57,0003.35,0001.36
2022-05-12 20:40:00,,0822.4,5.00,0.00,29.0,28.0,00.0,37.9,30.7,05.6,0000.0,0009.10,0003.31,0001.36
2022-05-12 20:41:00,,0822.6,5.01,0.00,29.0,28.0,00.0,37.9,30.8,05.6,0000.0,0009.08,0003.32,0001.34
2022-05-12 20:42:00,,0822.7,4.99,0.00,29.0,28.0,00.0,37.9,30.8,05.7,0000.0,0009.54,0003.37,0001.35
2022-05-12 20:43:00,,0822.7,5.00,0.00,28.9,28.0,00.0,37.9,30.7,05.4,0000.0,0009.78,0003.42,0001.36
2022-05-12 20:44:00,,0822.7,4.99,0.00,28.9,28.0,00.0,37.9,30.7,05.1,0000.0,0009.17,0003.42,0001.37
2022-05-12 20:45:00,,0822.7,5.01,0.00,28.9,28.0,00.0,37.9,30.7,05.1,0000.0,0009.21,0003.38,0001.36
2022-05-12 20:46:00,,0822.7,5.00,0.00,28.9,28.0,00.0,37.9,30.7,05.8,0000.0,0009.59,0003.39,0001.37
2022-05-12 20:47:00,,0822.6,4.99,0.00,28.9,28.0,00.0,37.9,30.7,05.6,0000.0,0010.15,0003.39,0001.39
2022-05-12 20:48:00,,0822.7,5.01,0.00,28.9,28.0,00.0,37.9,30.7,05.8,0000.0,0010.23,0003.32,0001.38
2022-05-12 20:49:00,,0822.7,4.99,0.00,28.9,28.0,00.0,37.9,30.7,05.9,0000.0,0009.84,0003.31,0001.38
2022-05-12 20:50:00,,0822.7,5.00,0.00,28.9,28.0,00.0,37.9,30.7,05.8,0000.0,0009.48,0003.33,0001.39
2022-05-12 20:51:00,,0822.7,4.99,0.00,28.9,28.0,00.0,37.9,30.7,05.2,0000.0,0009.96,0003.37,0001.39
2022-05-12 20:52:00,,0822.5,5.01,0.00,28.9,28.0,00.0,37.9,30.7,05.7,0000.0,0010.35,0003.35,0001.40
2022-05-12 20:53:00,,0822.6,5.00,0.00,28.9,27.9,00.0,37.9,30.6,05.5,0000.0,0010.09,0003.31,0001.40
2022-05-12 20:54:00,,0822.6,4.99,0.00,28.9,27.9,00.0,37.8,30.6,05.3,0000.0,0010.02,0003.31,0001.39
2022-05-12 20:55:00,,0822.6,5.01,0.00,28.9,27.9,00.0,37.8,30.6,05.4,0000.0,0010.13,0003.34,0001.41
2022-05-12 20:56:00,,0822.6,5.01,0.00,28.9,27.9,00.0,37.8,30.7,05.3,0000.0,0010.17,0003.36,0001.42
2022-05-12 20:57:00,,0822.5,4.99,0.00,28.9,28.0,00.0,37.8,30.7,05.7,0000.0,0009.89,0003.39,0001.42
2022-05-12 20:58:00,,0822.6,4.99,0.00,28.9,28.0,00.0,37.9,30.7,06.0,0000.0,0009.60,0003.45,0001.43
2022-05-12 20:59:00,,0822.5,5.01,0.00,28.9,28.0,00.0,37.9,30.7,05.8,0000.0,0009.54,0003.54,0001.44
